Regional Weather Roundup
Issued by NWS

Home | Current Version | Previous Version | Text Only | Print | Product List | Glossary On
Versions: 1 2 3 4 5 6 7 8 9 10 11 12 13 14 15 16 17 18 19 20 21 22 23 24 25 26 27 28 29 30 31 32 33 34 35 36 37 38 39 40 41 42 43 44 45 46 47 48 49 50
707
ASUS44 KLIX 301501
RWRLA
LOUISIANA WEATHER ROUNDUP
NATIONAL WEATHER SERVICE NEW ORLEANS LA
1000 AM CDT TUE SEP 30 2014

NOTE: "FAIR" INDICATES FEW OR NO CLOUDS BELOW 12,000 FEET WITH NO
      SIGNIFICANT WEATHER AND/OR OBSTRUCTIONS TO VISIBILITY.
      SKY/WX - SKY CONDITION AND SIGNIFICANT WEATHER.
      TMP - AIR TEMPERATURE.    DP   - DEWPOINT TEMPERATURE.
      RH  - RELATIVE HUMIDITY.  PRES - PRESSURE.
      HX  - HEAT INDEX.         WCI  - WIND CHILL INDEX.

*  THESE STATIONS ARE NOT NWS OR FAA STATIONS AND ARE NOT UNDER
   NWS QUALITY CONTROL.

LAZ040-048-061>063-065-066-069-301600-
SOUTHEAST LOUISIANA

CITY           SKY/WX    TMP DP  RH WIND       PRES   REMARKS
N.O. AUDUBON     N/A     84  75  74 MISG        N/A
N.O. INTL ARPT PTSUNNY   81  71  71 E5        29.91R
N.O. LAKEFRONT SUNNY     80  73  79 E8        29.92R
N.O. DOWNTOWN* PTSUNNY   81  72  74 CALM      29.92R
SLIDELL        SUNNY     80  71  74 SE5       29.91R
BATON ROUGE    SUNNY     82  71  69 VRB3      29.92R
BOOTHVILLE     SUNNY     82  75  79 NE6       29.90R
BELLE CHASSE   PTSUNNY   80  72  76 E6        29.90S
BOGALUSA*        N/A     82  71  70 E3        29.94R
GALLIANO*      NOT AVBL
NEW ROADS*     FAIR      80  73  79 CALM      29.92S
GONZALES*      FAIR      82  74  78 CALM      29.91R
HAMMOND*       NOT AVBL
HOUMA*         PTSUNNY  N/A N/A N/A N7        29.91R
PORT FOURCHON* NOT AVBL

$$

LAZ041-044-053-054-301600-
SOUTHWEST LOUISIANA

CITY           SKY/WX    TMP DP  RH WIND       PRES   REMARKS
LAKE CHARLES   MOSUNNY   80  74  81 E5        29.90R
LAFAYETTE      SUNNY     82  73  74 CALM      29.91S
PATTERSON      SUNNY     81  73  78 E6        29.93R
SALT POINT       N/A     83  75  77 VRB5      29.90R
NEW IBERIA     SUNNY     83  72  69 E6        29.91S
CHENAULT AIRPK NOT AVBL

$$

LAZ027-028-301600-
CENTRAL LOUISIANA

CITY           SKY/WX    TMP DP  RH WIND       PRES   REMARKS
FORT POLK      MOSUNNY   80  72  76 VRB3      29.91S
ALEXANDRIA INT SUNNY     81  71  71 SE5       29.90S
ALEXANDRIA     SUNNY     81  71  71 E5        29.92S

$$

LAZ001-002-301600-
NORTHWEST LOUISIANA

CITY           SKY/WX    TMP DP  RH WIND       PRES   REMARKS
SHREVEPORT     CLOUDY    79  66  64 SE5       29.92S
BARKSDALE AFB  MOSUNNY   81  65  58 S7        29.93R
DTN SHREVEPORT PTSUNNY   77  64  64 S3        29.93R

$$

LAZ014-016-301600-
NORTHEAST LOUISIANA

CITY           SKY/WX    TMP DP  RH WIND       PRES   REMARKS
MONROE         CLOUDY    75  65  70 CALM      29.94S
TALLULAH       SUNNY     82  68  62 VRB3      29.93F

$$




USA.gov is the U.S. government's official web portal to all federal, state and local government web resources and services.